Home > Weather > Palermo > Past weeks

Flag for Italy Past Weather in Palermo, Italy — Yesterday and Last 2 Weeks

Now
77 °F

Scattered clouds.


Feels Like: 79 °F
Forecast: 73 / 80 °F
Wind: 16 mph from West

Location: Palermo / Punta Raisi

Current Time: Jul 25, 2016 at 2:00:31 PM

Latest Report: Jul 25, 2016 at 1:20 PM


Visibility: N/A

Pressure: 29.98 "Hg

Humidity: 79%

Dew Point: 70 °F

Location of PalermoLocation

Past Weather in Palermo — Graph

°F

Palermo Temperature Yesterday

Maximum temperature yesterday: 82 °F (at 9:20 AM)
Minimum temperature yesterday: 73 °F (at 6:50 AM)
Average temperature yesterday: 78 °F

High & Low Weather Summary for the Past Weeks

 TemperatureHumidityPressure
High90 °F (Jul 11, 3:20 PM)89% (Jul 11, 1:50 AM)30.21 "Hg (Jul 11, 1:50 AM)
Low68 °F (Jul 17, 4:50 AM)27% (Jul 23, 5:50 PM)29.89 "Hg (Jul 12, 3:50 PM)
Average78 °F68%30.03 "Hg
* Reported Jul 10 12:20 PM — Jul 25 12:50 PM, Palermo, Weather by CustomWeather, © 2016

Note: Actual official high and low records may vary slightly from our data, if they occured in-between our weather recording intervals... More about our weather records

Advertising

Palermo Weather History for the Previous 24 Hours

Scroll right to see more
 ConditionsComfort  
Time TempWeatherWind HumidityBarometerVisibility
12:50 PM
Mon, Jul 25
77 °FPassing clouds.21 mph74%29.98 "HgN/A
12:20 PM77 °FPassing clouds.15 mph69%29.98 "HgN/A
11:50 AM77 °FScattered clouds.16 mph69%29.98 "HgN/A
11:20 AM77 °FScattered clouds.12 mph69%29.98 "HgN/A
10:50 AM77 °FPassing clouds.14 mph69%29.98 "HgN/A
10:20 AM81 °FScattered clouds.15 mph58%29.98 "HgN/A
9:50 AM79 °FPartly sunny.13 mph58%29.98 "HgN/A
9:20 AM77 °FScattered clouds.13 mph65%29.98 "HgN/A
8:50 AM77 °FScattered clouds.13 mph65%29.98 "HgN/A
8:20 AM77 °FScattered clouds.15 mph65%29.98 "HgN/A
7:50 AM77 °FScattered clouds.13 mph65%29.98 "HgN/A
7:20 AM77 °FScattered clouds.14 mph65%29.98 "HgN/A
6:50 AM75 °FPassing clouds.15 mph69%29.98 "HgN/A
6:20 AM73 °FPassing clouds.10 mph74%29.98 "HgN/A
5:50 AM73 °FPassing clouds.10 mph74%29.98 "HgN/A
5:20 AM73 °FPassing clouds.8 mph69%29.98 "HgN/A
4:50 AM73 °FPassing clouds.7 mph74%29.98 "HgN/A
4:20 AM73 °FPassing clouds.7 mph74%30.01 "HgN/A
3:50 AM73 °FPassing clouds.9 mph74%30.01 "HgN/A
3:20 AM73 °FPassing clouds.10 mph83%30.01 "HgN/A
2:50 AM75 °FPassing clouds.8 mph74%30.01 "HgN/A
2:20 AM73 °FPassing clouds.6 mph78%30.01 "HgN/A
1:50 AM75 °FPassing clouds.7 mph74%30.01 "HgN/A
1:20 AM75 °FPassing clouds.9 mph74%30.01 "HgN/A
12:50 AM75 °FPassing clouds.7 mph78%30.01 "HgN/A
12:20 AM75 °FPassing clouds.2 mph83%30.01 "HgN/A
11:50 PM
Sun, Jul 24
75 °FPassing clouds.6 mph78%30.01 "HgN/A
11:20 PM75 °FPassing clouds.5 mph78%30.04 "HgN/A
10:50 PM77 °FPassing clouds.3 mph74%30.01 "HgN/A
10:20 PM77 °FPassing clouds.7 mph74%30.01 "HgN/A
9:50 PM77 °FPassing clouds.10 mph79%30.01 "HgN/A
9:20 PM77 °FPassing clouds.9 mph79%30.01 "HgN/A
8:50 PM77 °FPassing clouds.10 mph83%30.01 "HgN/A
8:20 PM77 °FPassing clouds.12 mph83%30.01 "HgN/A
7:50 PM77 °FPassing clouds.12 mph83%30.01 "HgN/A
7:20 PM77 °FSunny.12 mph83%30.01 "Hg10 mi
6:50 PM79 °FSunny.10 mph74%30.01 "Hg10 mi
6:20 PM79 °FSunny.10 mph79%30.01 "Hg10 mi
5:50 PM79 °FPassing clouds.10 mph79%30.01 "HgN/A
5:20 PM79 °FSunny.10 mph79%30.01 "Hg10 mi
4:50 PM79 °FSunny.10 mph79%30.01 "Hg10 mi
4:20 PM79 °FPassing clouds.12 mph79%30.01 "HgN/A
3:50 PM79 °FSunny.12 mph79%30.01 "Hg10 mi
3:20 PM79 °FPassing clouds.12 mph79%30.04 "HgN/A
2:50 PM81 °FSunny.12 mph74%30.04 "Hg10 mi
2:20 PM81 °FSunny.10 mph70%30.07 "Hg10 mi
Weather by CustomWeather, © 2016

See weather overviewHow to use our weather pages